| time (UTC) | temp F | wind direction | speed knots | gust knots | rain 1hr in | rain 24hr in | rain mn in | humidity % | barometer mb |
| 20260510143036 | 69 | 351 | 23.5 | 29.5 | 0.00 | 0.00 | 0.00 | 58 | 1006.3 |
| 20260510141522 | 69 | 19 | 24.3 | 30.4 | 0.00 | 0.00 | 0.00 | 50 | 1005.8 |
| 20260510140015 | 68 | 13 | 13.9 | 20.9 | 0.00 | 0.00 | 0.00 | 34 | 1005.2 |
| 20260510134512 | 67 | 13 | 9.6 | 17.4 | 0.00 | 0.00 | 0.00 | 35 | 1004.8 |
| 20260510133011 | 65 | 346 | 0.9 | 7.8 | 0.00 | 0.00 | 0.00 | 40 | 1004.5 |
| 20260510131509 | 63 | 339 | 0.0 | 7.8 | 0.00 | 0.00 | 0.00 | 43 | 1004.1 |
| 20260510130012 | 60 | 329 | 0.0 | 0.9 | 0.00 | 0.00 | 0.00 | 46 | 1003.7 |
| 20260510124505 | 59 | 329 | 0.0 | 4.3 | 0.00 | 0.00 | 0.00 | 46 | 1003.5 |
| 20260510123005 | 60 | 338 | 6.1 | 10.4 | 0.00 | 0.00 | 0.00 | 45 | 1003.2 |
| 20260510121559 | 62 | 98 | 0.0 | 0.0 | 0.00 | 0.00 | 0.00 | 41 | 1002.4 |
| 20260510120054 | 63 | 98 | 0.0 | 1.7 | 0.00 | 0.00 | 0.00 | 39 | 1001.9 |
| 20260510114552 | 63 | 98 | 0.0 | 2.6 | 0.00 | 0.00 | 0.00 | 39 | 1001.8 |
| 20260510113049 | 63 | 98 | 0.0 | 0.0 | 0.00 | 0.00 | 0.00 | 39 | 1001.9 |
| 20260510111545 | 64 | 98 | 0.0 | 2.6 | 0.00 | 0.00 | 0.00 | 38 | 1001.9 |
| 20260510110044 | 64 | 107 | 0.0 | 0.9 | 0.00 | 0.00 | 0.00 | 38 | 1001.7 |
| 20260510104540 | 64 | 107 | 0.0 | 2.6 | 0.00 | 0.00 | 0.00 | 38 | 1001.6 |
| 20260510103035 | 64 | 114 | 0.0 | 0.9 | 0.00 | 0.00 | 0.00 | 37 | 1001.5 |
| 20260510101534 | 65 | 114 | 0.0 | 0.9 | 0.00 | 0.00 | 0.00 | 36 | 1001.3 |
| 20260510100029 | 67 | 114 | 0.0 | 0.0 | 0.00 | 0.00 | 0.00 | 31 | 1001.2 |
| 20260510094543 | 69 | 114 | 0.0 | 0.0 | 0.00 | 0.00 | 0.00 | 29 | 1001.0 |
| 20260510093026 | 69 | 114 | 0.0 | 0.9 | 0.00 | 0.00 | 0.00 | 28 | 1000.7 |
| 20260510091525 | 70 | 114 | 0.0 | 3.5 | 0.00 | 0.00 | 0.00 | 28 | 1000.9 |
| 20260510090024 | 69 | 114 | 0.0 | 0.0 | 0.00 | 0.00 | 0.00 | 28 | 1000.8 |
| 20260510084521 | 70 | 114 | 0.9 | 6.1 | 0.00 | 0.00 | 0.00 | 26 | 1000.8 |
| 20260510083017 | 71 | 114 | 0.9 | 7.8 | 0.00 | 0.00 | 0.00 | 26 | 1001.2 |
| 20260510081517 | 71 | 57 | 0.9 | 3.5 | 0.00 | 0.00 | 0.00 | 24 | 1001.1 |
| 20260510080014 | 68 | 13 | 0.0 | 4.3 | 0.00 | 0.00 | 0.00 | 29 | 1001.7 |
| 20260510074509 | 69 | 342 | 7.8 | 9.6 | 0.00 | 0.00 | 0.00 | 27 | 1002.1 |
| 20260510073008 | 71 | 224 | 0.0 | 5.2 | 0.00 | 0.00 | 0.00 | 25 | 1001.8 |
| 20260510071501 | 72 | 205 | 1.7 | 4.3 | 0.00 | 0.00 | 0.00 | 24 | 1001.6 |
| 20260510070057 | 73 | 180 | 0.0 | 3.5 | 0.00 | 0.00 | 0.00 | 23 | 1001.2 |
| 20260510064553 | 73 | 180 | 0.9 | 7.0 | 0.00 | 0.00 | 0.00 | 22 | 1001.1 |
| 20260510063052 | 74 | 177 | 0.9 | 4.3 | 0.00 | 0.00 | 0.00 | 21 | 1001.2 |
| 20260510061552 | 75 | 175 | 1.7 | 7.0 | 0.00 | 0.00 | 0.00 | 20 | 1001.3 |
| 20260510060047 | 75 | 175 | 1.7 | 6.1 | 0.00 | 0.00 | 0.00 | 19 | 1001.4 |
| 20260510054549 | 75 | 169 | 2.6 | 7.0 | 0.00 | 0.00 | 0.00 | 19 | 1001.5 |
| 20260510053058 | 76 | 169 | 0.9 | 7.0 | 0.00 | 0.00 | 0.00 | 18 | 1001.4 |
| 20260510051646 | 76 | 171 | 0.0 | 3.5 | 0.00 | 0.00 | 0.00 | 18 | 1001.3 |
| 20260510050044 | 77 | 173 | 0.0 | 5.2 | 0.00 | 0.00 | 0.00 | 18 | 1001.4 |
| 20260510044546 | 77 | 169 | 2.6 | 7.8 | 0.00 | 0.00 | 0.00 | 18 | 1001.4 |
| 20260510043055 | 76 | 173 | 0.0 | 3.5 | 0.00 | 0.00 | 0.00 | 18 | 1001.4 |
| 20260510041543 | 76 | 174 | 0.9 | 3.5 | 0.00 | 0.00 | 0.00 | 19 | 1001.3 |
| 20260510040043 | 74 | 175 | 4.3 | 7.0 | 0.00 | 0.00 | 0.00 | 21 | 1001.3 |
| 20260510034537 | 75 | 222 | 0.0 | 3.5 | 0.00 | 0.00 | 0.00 | 22 | 1000.9 |
| 20260510033033 | 77 | 222 | 0.0 | 1.7 | 0.00 | 0.00 | 0.00 | 18 | 1000.8 |
| 20260510031531 | 78 | 222 | 0.0 | 1.7 | 0.00 | 0.00 | 0.00 | 19 | 1000.6 |
| 20260510030025 | 79 | 222 | 0.0 | 1.7 | 0.00 | 0.00 | 0.00 | 18 | 1000.4 |
| 20260510024520 | 80 | 222 | 0.0 | 0.9 | 0.00 | 0.00 | 0.00 | 18 | 1000.3 |
| 20260510023015 | 83 | 222 | 0.0 | 0.9 | 0.00 | 0.00 | 0.00 | 15 | 1000.0 |
| 20260510021523 | 87 | 222 | 3.5 | 5.2 | 0.00 | 0.00 | 0.00 | 13 | 999.8 |
| 20260510020006 | 87 | 222 | 4.3 | 6.1 | 0.00 | 0.00 | 0.00 | 12 | 999.6 |
| 20260510014503 | 88 | 222 | 1.7 | 4.3 | 0.00 | 0.00 | 0.00 | 12 | 999.5 |
| 20260510013058 | 89 | 222 | 0.0 | 4.3 | 0.00 | 0.00 | 0.00 | 12 | 999.4 |
| 20260510011554 | 90 | 222 | 0.0 | 2.6 | 0.00 | 0.00 | 0.00 | 12 | 999.4 |
| 20260510010055 | 91 | 222 | 3.5 | 8.7 | 0.00 | 0.00 | 0.00 | 11 | 999.5 |
| 20260510004553 | 91 | 224 | 6.1 | 12.2 | 0.00 | 0.00 | 0.00 | 10 | 999.4 |
| 20260510003052 | 91 | 223 | 1.7 | 7.8 | 0.00 | 0.00 | 0.00 | 10 | 999.5 |
| 20260510001550 | 91 | 214 | 4.3 | 13.0 | 0.00 | 0.00 | 0.00 | 11 | 999.5 |
| 20260510000056 | 92 | 225 | 7.8 | 13.0 | 0.00 | 0.00 | 0.00 | 10 | 999.7 |
| 20260509234548 | 91 | 215 | 8.7 | 13.0 | 0.00 | 0.00 | 0.00 | 10 | 999.7 |
| 20260509233047 | 91 | 209 | 2.6 | 10.4 | 0.00 | 0.00 | 0.00 | 11 | 1000.0 |
| 20260509231546 | 91 | 191 | 7.8 | 13.0 | 0.00 | 0.00 | 0.00 | 11 | 999.9 |
| 20260509230048 | 91 | 184 | 5.2 | 10.4 | 0.00 | 0.00 | 0.00 | 11 | 1000.2 |
| 20260509224543 | 91 | 207 | 0.9 | 8.7 | 0.00 | 0.00 | 0.00 | 11 | 1000.3 |
| 20260509223041 | 91 | 204 | 6.1 | 14.8 | 0.00 | 0.00 | 0.00 | 11 | 1000.5 |
| 20260509221544 | 91 | 266 | 6.1 | 12.2 | 0.00 | 0.00 | 0.00 | 11 | 1000.6 |
| 20260509220038 | 91 | 227 | 2.6 | 9.6 | 0.00 | 0.00 | 0.00 | 11 | 1000.8 |
| 20260509214544 | 91 | 281 | 4.3 | 11.3 | 0.00 | 0.00 | 0.00 | 11 | 1001.0 |
| 20260509213035 | 91 | 302 | 5.2 | 9.6 | 0.00 | 0.00 | 0.00 | 11 | 1001.4 |
| 20260509211529 | 91 | 242 | 11.3 | 14.8 | 0.00 | 0.00 | 0.00 | 11 | 1001.5 |
| 20260509210030 | 91 | 239 | 9.6 | 13.9 | 0.00 | 0.00 | 0.00 | 11 | 1001.9 |
| 20260509204525 | 91 | 228 | 5.2 | 10.4 | 0.00 | 0.00 | 0.00 | 11 | 1002.0 |
| 20260509203024 | 90 | 234 | 0.9 | 15.6 | 0.00 | 0.00 | 0.00 | 12 | 1002.3 |
| 20260509201519 | 90 | 168 | 7.8 | 15.6 | 0.00 | 0.00 | 0.00 | 12 | 1002.5 |
| 20260509200015 | 89 | 239 | 6.1 | 13.0 | 0.00 | 0.00 | 0.00 | 13 | 1002.9 |
| 20260509194513 | 89 | 269 | 6.1 | 11.3 | 0.00 | 0.00 | 0.00 | 14 | 1003.1 |
| 20260509193021 | 88 | 230 | 4.3 | 14.8 | 0.00 | 0.00 | 0.00 | 13 | 1003.4 |
| 20260509191507 | 87 | 207 | 8.7 | 8.7 | 0.00 | 0.00 | 0.00 | 15 | 1003.5 |
| 20260509183012 | 85 | 188 | 5.2 | 14.8 | 0.00 | 0.00 | 0.00 | 16 | 1004.2 |
| 20260509181508 | 84 | 196 | 8.7 | 13.0 | 0.00 | 0.00 | 0.00 | 17 | 1004.5 |
| 20260509180006 | 83 | 219 | 9.6 | 17.4 | 0.00 | 0.00 | 0.00 | 18 | 1004.9 |
| 20260509174503 | 83 | 225 | 7.8 | 13.0 | 0.00 | 0.00 | 0.00 | 19 | 1005.0 |
| 20260509173101 | 82 | 196 | 4.3 | 12.2 | 0.00 | 0.00 | 0.00 | 22 | 1005.2 |
| 20260509171558 | 81 | 203 | 7.0 | 11.3 | 0.00 | 0.00 | 0.00 | 23 | 1005.4 |
| 20260509170054 | 79 | 200 | 1.7 | 13.0 | 0.00 | 0.00 | 0.00 | 25 | 1005.6 |
| 20260509164547 | 78 | 192 | 3.5 | 9.6 | 0.00 | 0.00 | 0.00 | 27 | 1005.7 |
| 20260509163044 | 77 | 202 | 1.7 | 7.8 | 0.00 | 0.00 | 0.00 | 28 | 1005.8 |
| 20260509161539 | 75 | 192 | 1.7 | 7.8 | 0.00 | 0.00 | 0.00 | 30 | 1005.9 |
| 20260509160034 | 74 | 184 | 0.9 | 7.8 | 0.00 | 0.00 | 0.00 | 32 | 1006.0 |
| 20260509154531 | 73 | 207 | 3.5 | 8.7 | 0.00 | 0.00 | 0.00 | 32 | 1006.0 |
| 20260509153035 | 71 | 207 | 2.6 | 7.8 | 0.00 | 0.00 | 0.00 | 35 | 1006.1 |
| 20260509151523 | 70 | 192 | 0.9 | 6.1 | 0.00 | 0.00 | 0.00 | 37 | 1006.4 |
| 20260509150018 | 68 | 206 | 0.0 | 4.3 | 0.00 | 0.00 | 0.00 | 38 | 1006.4 |
| 20260509144513 | 67 | 198 | 0.0 | 0.9 | 0.00 | 0.00 | 0.00 | 40 | 1006.6 |